Location: Banios
(43.0451°N, 0.2335°E)
Time: 01:34:20
(UTC+00:00)

deb Explorer IX - All Passes

Search period start: 12 May 2021 00:00
Search period end: 22 May 2021 00:00
Orbit: 541 x 1098 km, 38.8° (Epoch: 11 May)

Date Brightness Start Highest point End Pass type
(mag) Time Alt. Az. Time Alt. Az. Time Alt. Az.
12 May - 00:45:16 10° W 00:50:45 52° S 00:55:26 10° ESE night (unlit)
12 May - 02:32:49 10° W 02:37:00 26° SSW 02:40:44 10° SSE visible
12 May - 20:48:07 10° SSW 20:53:41 28° SSE 20:58:43 10° E visible
12 May - 22:34:10 10° WSW 22:40:19 51° S 22:45:35 10° E visible
13 May - 00:21:20 10° W 00:27:01 53° S 00:31:50 10° ESE night (unlit)
13 May - 02:08:55 10° W 02:13:17 27° SSW 02:17:10 10° SSE visible
13 May - 20:24:06 10° SSW 20:29:50 29° SSE 20:35:03 10° E visible
13 May - 22:10:10 10° WSW 22:16:30 52° S 22:21:57 10° E visible
13 May - 23:57:22 10° W 00:03:15 54° S 00:08:14 10° ESE visible
14 May - 01:44:59 10° W 01:49:34 28° SSW 01:53:36 10° SSE night (unlit)
14 May - 20:00:05 10° SSW 20:05:59 29° SSE 20:11:22 10° E visible
14 May - 21:46:11 10° WSW 21:52:40 53° S 21:58:18 10° E visible
14 May - 23:33:24 10° W 23:39:28 55° S 23:44:38 10° ESE visible
15 May - 01:21:03 10° W 01:25:50 29° SSW 01:30:01 10° SSE night (unlit)
15 May - 19:36:06 10° SSW 19:42:07 30° SSE 19:47:39 10° E visible
15 May - 21:22:11 10° WSW 21:28:50 54° S 21:34:38 10° E visible
15 May - 23:09:25 10° W 23:15:40 56° S 23:21:01 10° ESE visible
16 May - 00:57:06 10° W 01:02:05 30° SSW 01:06:27 10° SSE visible
16 May - 17:31:30 10° SE 17:32:02 10° SE 17:32:34 10° SE daylight
16 May - 19:12:07 10° SSW 19:18:13 31° SSE 19:23:55 10° E daylight
16 May - 20:58:12 10° WSW 21:04:58 54° S 21:10:57 10° E visible
16 May - 22:45:26 10° W 22:51:52 57° S 22:57:22 10° ESE visible
17 May - 00:33:07 10° W 00:38:19 31° SSW 00:42:51 10° SE visible
17 May - 17:07:14 10° SE 17:08:10 10° SE 17:09:04 10° SE daylight
17 May - 18:48:09 10° SSW 18:54:19 31° SSE 19:00:10 10° E daylight
17 May - 20:34:12 10° WSW 20:41:06 55° S 20:47:15 10° E visible
17 May - 22:21:27 10° W 22:28:02 57° S 22:33:43 10° ESE visible
18 May - 00:09:07 10° W 00:14:32 32° SSW 00:19:15 10° SE visible
18 May - 16:43:10 10° SSE 16:44:16 10° SE 16:45:22 10° SE daylight
18 May - 18:24:11 10° SSW 18:30:26 31° SSE 18:36:23 10° E daylight
18 May - 20:10:14 10° WSW 20:17:12 56° S 20:23:31 10° E visible
18 May - 21:57:27 10° W 22:04:11 58° S 22:10:03 10° ESE visible
18 May - 23:45:08 10° W 23:50:44 33° SSW 23:55:38 10° SE visible
19 May - 16:19:13 10° SSE 16:20:23 10° SE 16:21:33 10° SE daylight
19 May - 18:00:15 10° SSW 18:06:31 32° SSE 18:12:34 10° E daylight
19 May - 19:46:15 10° WSW 19:53:19 56° S 19:59:46 10° E visible
19 May - 21:33:28 10° W 21:40:19 59° S 21:46:21 10° ESE visible
19 May - 23:21:08 10° W 23:26:55 33° SSW 23:31:59 10° SE visible
20 May - 15:55:22 10° SSE 15:56:29 10° SE 15:57:38 10° SE daylight
20 May - 17:36:19 10° SSW 17:42:36 32° SSE 17:48:44 10° E daylight
20 May - 19:22:18 10° WSW 19:29:23 56° S 19:36:00 10° E daylight
20 May - 21:09:28 10° W 21:16:26 59° S 21:22:39 10° ESE visible
20 May - 22:57:08 10° W 23:03:05 34° SSW 23:08:21 10° SE visible
21 May - 00:47:50 10° SW 00:48:50 10° SW 00:49:50 10° SSW visible
21 May - 15:31:36 10° SE 15:32:36 10° SE 15:33:37 10° SE daylight
21 May - 17:12:25 10° SSW 17:18:40 32° SSE 17:24:53 10° E daylight
21 May - 18:58:21 10° WSW 19:05:28 57° S 19:12:12 10° E daylight
21 May - 20:45:29 10° W 20:52:33 60° S 20:58:54 10° ESE visible
21 May - 22:33:08 10° W 22:39:14 35° SSW 22:44:40 10° SE visible
